Total_Precipitation_Accumulation
0.00 0.00 0.01 0.02 0.06 0.12 0.16 0.18 0.20 0.21 0.21 0.22 0.25 0.30 0.32 0.41 0.45 0.55 0.55 0.59 0.69 0.75
0.14 0.11 0.10 0.10 0.09 0.10 0.15 0.17 0.19 0.19 0.22 0.22 0.19 0.30 0.37 0.44 0.47 0.43 0.69 0.93 0.85 0.76
0.09 0.08 0.09 0.07 0.06 0.06 0.08 0.19 0.21 0.22 0.19 0.30 0.43 0.33 0.38 0.46 0.60 0.70 0.60 0.58 0.82 0.99
0.10 0.11 0.09 0.10 0.17 0.26 0.21 0.29 0.34 0.33 0.32 0.21 0.23 0.39 0.37 0.28 0.33 0.42 0.44 0.45 0.46 0.51
0.11 0.31 0.27 0.18 0.27 0.21 0.19 0.23 0.34 0.40 0.35 0.28 0.29 0.26 0.29 0.37 0.32 0.28 0.30 0.34 0.42 0.46
0.15 0.28 0.31 0.22 0.21 0.19 0.11 0.10 0.11 0.12 0.18 0.22 0.18 0.14 0.16 0.17 0.24 0.31 0.31 0.30 0.33 0.36
0.06 0.10 0.14 0.15 0.10 0.13 0.13 0.06 0.04 0.03 0.02 0.03 0.06 0.07 0.06 0.04 0.04 0.05 0.05 0.07 0.10 0.12
0.06 0.10 0.10 0.08 0.04 0.03 0.06 0.11 0.10 0.07 0.04 0.01 0.01 0.02 0.02 0.03 0.06 0.07 0.07 0.06 0.06 0.05
0.00 0.01 0.02 0.04 0.05 0.04 0.04 0.02 0.03 0.06 0.09 0.10 0.11 0.10 0.06 0.04 0.05 0.05 0.05 0.05 0.04 0.03
0.00 0.01 0.02 0.03 0.03 0.03 0.04 0.04 0.03 0.04 0.05 0.04 0.03 0.05 0.04 0.02 0.01 0.01 0.01 0.01 0.01 0.01
0.00 0.00 0.00 0.00 0.00 0.00 0.00 0.01 0.01 0.01 0.01 0.00 0.00 0.00 0.00 0.00 0.00 0.00 0.00 0.00 0.00 0.00
0.00 0.00 0.00 0.00 0.00 0.00 0.00 0.00 0.00 0.00 0.00 0.00 0.00 0.00 0.00 0.00 0.00 0.00 0.00 0.00 0.00 0.00
0.00 0.00 0.00 0.00 0.00 0.00 0.00 0.00 0.00 0.00 0.00 0.00 0.00 0.00 0.00 0.00 0.00 0.00 0.00 0.00 0.00 0.00
0.00 0.00 0.00 0.00 0.00 0.00 0.00 0.00 0.00 0.00 0.00 0.00 0.00 0.00 0.00 0.00 0.00 0.00 0.00 0.00 0.00 0.00